Regional Weather Roundup
Issued by NWS

Home | Current Version | Previous Version | Graphics & Text | Print | Product List | Glossary On
Versions: 1 2 3 4 5 6 7 8 9 10 11 12 13 14 15 16 17 18 19 20 21 22 23 24 25 26 27 28 29 30 31 32 33 34 35 36 37 38 39 40 41 42 43 44 45 46 47 48 49 50
000
ASUS43 KLMK 210610
RWRKY
KENTUCKY REGIONAL WEATHER ROUNDUP
NATIONAL WEATHER SERVICE LOUISVILLE KY
100 AM EST SUN DEC 21 2014

NOTE "FAIR" INDICATES FEW OR NO CLOUDS BELOW 12,000 FEET
WITH NO SIGNIFICANT WEATHER AND/OR OBSTRUCTIONS TO VISIBILITY.

KYZ001>023-026-027-061>063-070>075-210700-
WESTERN AND SOUTH CENTRAL KENTUCKY

CITY           SKY/WX    TMP DP  RH WIND       PRES   REMARKS
PADUCAH        CLEAR     28  25  88 CALM      30.27F
HENDERSON      CLEAR     25  19  80 CALM      30.29S
OWENSBORO      CLEAR     28  25  89 CALM      30.29F
HOPKINSVILLE   CLEAR     29  25  85 NE1       30.27F
BOWLING GREEN  CLEAR     27  22  81 CALM      30.29S
GLASGOW        CLEAR     27  24  89 CALM      30.27S
$$

KYZ024-025-028>034-038-045-046-053-210700-
NORTH CENTRAL KENTUCKY

CITY           SKY/WX    TMP DP  RH WIND       PRES   REMARKS
LOUISVILLE/SDF CLEAR     28  24  85 CALM      30.29F
LOUISVILLE/LOU CLEAR     27  23  85 CALM      30.30F FOG
FORT KNOX      CLEAR     26  23  91 NE2       30.26F
$$

KYZ035>037-039>044-047>052-055>060-089>105-210700-
NORTHEAST KENTUCKY

CITY           SKY/WX    TMP DP  RH WIND       PRES   REMARKS
LEXINGTON      CLEAR     23  21  92 CALM      30.28S FOG
COVINGTON      CLOUDY    32  22  66 CALM      30.28F
FRANKFORT      CLEAR     24  20  84 CALM      30.27F
$$

KYZ054-064>069-076>088-106>120-210700-
SOUTHEAST KENTUCKY

CITY           SKY/WX    TMP DP  RH WIND       PRES   REMARKS
JACKSON        CLEAR     28  22  78 CALM      30.25S
LONDON         CLEAR     26  32 100 CALM      30.26S
SOMERSET       CLEAR     25  23  93 CALM      30.29S FOG
MIDDLESBORO    CLEAR     28  26  94 CALM      30.26S
MONTICELLO     CLEAR     20  18  92 CALM      30.30S FOG
$$



USA.gov is the U.S. government's official web portal to all federal, state and local government web resources and services.